weather.gov     
National Weather Service

Terminal Aerodrome Forecast
NWS Homepage
This page is being discontinued on March 12, 2014.
The same data is available at this site. Please update your bookmarks.
Thank you, and we apologize for the inconvenience.
Please send an email to SR-SRH.Webmaster@noaa.gov with any concerns.


Current Version
Previous Version:    01  02  03  04  05  06  07  08  09  10  11  12  13  14  15  16  17  18  19  20  21  22  23  24  25  26  27  28  29  30  
   31  32  33  34  35  36  
[Printable]
938
FTUS44 KLIX 220900 AAA
TAFBTR
TAF AMD
KBTR 220940Z 2210/2306 00000KT 1/4SM FG VV002
      TEMPO 2210/2213 1SM BR BKN003
     FM221300 12003KT 5SM BR BKN008 BKN030
     FM221530 16006KT P6SM BKN025
     FM221700 21014KT P6SM BKN030
     FM230030 21009KT P6SM BKN015=


U.S. Dept. of Commerce
NOAA National Weather Service
1325 East West Highway
Silver Spring, MD 20910
E-mail: w-nws.webmaster@noaa.gov
Page last modified: May 16, 2007
NATIONAL WEATHER SERVICE: for Safety, for Work, for Fun - FOR LIFE